Terminal Aerodrome Forecast
Issued by NWS Wakefield, VA

Home | Current Version | Previous Version | Text Only | Print | Product List | Glossary On
Versions: 1 2 3 4 5 6 7 8 9 10 11 12 13 14 15 16 17 18
000
FTUS41 KAKQ 270204 AAB
TAFSBY
TAF AMD
KSBY 270204Z 2702/2724 07006KT 1/2SM FG VV002
     FM270400 15006KT 2SM BR OVC003
     FM270600 15006KT 4SM BR OVC007
     FM270800 18005KT 5SM BR OVC015
     FM271000 19008KT P6SM OVC025
     FM271600 20011KT P6SM BKN050=

USA.gov is the U.S. government's official web portal to all federal, state and local government web resources and services.